Weather History for Mackall AAF, NC

Change the Weather History Date:

Sunday, January 19, 2014

  Actual Average Record
Temperature  
Mean Temperature 42 °F -  
Max Temperature 57 °F 51 °F 75 °F (2001)
Min Temperature 28 °F 29 °F 17 °F (2005)
Degree Days  
Heating Degree Days 22    
Moisture  
Dew Point 23 °F    
Average Humidity 47    
Maximum Humidity 70    
Minimum Humidity 29    
Precipitation  
Precipitation 0.00 in - - ()
Sea Level Pressure  
Sea Level Pressure 29.99 in    
Wind  
Wind Speed 9 mph (SW)    
Max Wind Speed 18 mph    
Max Gust Speed 43 mph    
Visibility 11 miles    
Events Rain    
Averages and records for this station are not official NWS values.
T = Trace of Precipitation, MM = Missing Value Source: NWS Daily Summary

Daily Weather History Graph

Daily Weather History Graph

Search for Another Location

Airport:

Trip Planner

Search our weather history database for the weather conditions in past years. The results will help you decide how hot, cold, wet, or windy it might be!

Date:

Astronomy

Jan. 19, 2014 Rise Set
Actual Time 7:24 AM EST 5:33 PM EST
Civil Twilight 6:56 AM EST 6:00 PM EST
Nautical Twilight 6:26 AM EST 6:31 PM EST
Astronomical Twilight 5:55 AM EST 7:02 PM EST
Moon 9:00 PM EST (1/19) 9:02 AM EST (1/19)
Length of Visible Light 11h 03m
Length of Day
10h 09m
Waning Gibbous, 89% of the Moon is Illuminated
Jan 19
Waning Gibbous
Jan 24
Last Quarter
Jan 30
New
Feb 6
First Quarter
Feb 14
Full

Hourly Weather History & Observations

Time (EST) Temp. Windchill Dew Point Humidity Pressure Visibility Wind Dir Wind Speed Gust Speed Precip Events Conditions
12:56 AM 28.0 °F 21.7 °F 19.4 °F 70% 30.06 in 12.0 mi SSW 5.8 mph - N/A   Partly Cloudy
1:56 AM 30.0 °F 23.2 °F 19.8 °F 66% 30.04 in 12.0 mi South 6.9 mph - N/A   Mostly Cloudy
2:56 AM 32.4 °F 26.0 °F 19.8 °F 60% 30.03 in 12.0 mi SSW 6.9 mph - N/A   Mostly Cloudy
3:56 AM 33.3 °F 27.1 °F 19.2 °F 56% 30.01 in 12.0 mi SSW 6.9 mph - N/A   Overcast
4:56 AM 36.0 °F 28.0 °F 17.8 °F 48% 29.99 in 12.0 mi SSW 11.5 mph - N/A   Overcast
5:56 AM 37.0 °F 29.8 °F 17.8 °F 46% 29.99 in 12.0 mi SW 10.4 mph - N/A   Overcast
6:56 AM 38.1 °F 31.2 °F 17.4 °F 43% 29.99 in 12.0 mi SSW 10.4 mph - N/A   Overcast
7:47 AM 37.4 °F 30.8 °F 17.6 °F 45% 29.99 in 12.0 mi SW 9.2 mph - N/A Rain Light Rain
7:56 AM 37.2 °F 31.2 °F 23.4 °F 57% 30.01 in 12.0 mi SSW 8.1 mph - N/A Rain Light Rain
8:43 AM 35.6 °F 30.7 °F 24.8 °F 65% 29.99 in 12.0 mi SSW 5.8 mph - N/A   Mostly Cloudy
8:56 AM 36.0 °F 31.1 °F 25.9 °F 67% 30.01 in 12.0 mi South 5.8 mph - N/A   Scattered Clouds
9:56 AM 42.1 °F 35.7 °F 22.1 °F 45% 30.03 in 12.0 mi SW 11.5 mph 18.4 mph N/A   Clear
10:56 AM 45.9 °F 39.7 °F 21.4 °F 38% 30.02 in 12.0 mi WSW 13.8 mph 19.6 mph N/A   Clear
11:56 AM 49.1 °F - 21.0 °F 33% 30.01 in 12.0 mi West 11.5 mph 18.4 mph N/A   Clear
12:56 PM 51.6 °F - 21.9 °F 31% 29.98 in 12.0 mi West 11.5 mph 20.7 mph N/A   Clear
1:56 PM 54.0 °F - 22.5 °F 29% 29.96 in 12.0 mi WSW 13.8 mph 18.4 mph N/A   Clear
2:56 PM 55.0 °F - 23.2 °F 29% 29.95 in 12.0 mi West 12.7 mph 21.9 mph N/A   Clear
3:46 PM 57.2 °F - 28.4 °F 33% 29.95 in 1.2 mi West 18.4 mph 42.6 mph N/A   Haze
3:47 PM 57.2 °F - 24.8 °F 29% 29.95 in 1.1 mi West 17.3 mph 42.6 mph N/A   Haze
3:56 PM 54.7 °F - 22.5 °F 29% 29.96 in 2.2 mi West 12.7 mph 24.2 mph N/A   Haze
4:01 PM 53.6 °F - 23.0 °F 30% 29.95 in 12.0 mi West 16.1 mph 20.7 mph N/A   Partly Cloudy
4:56 PM 53.1 °F - 23.0 °F 31% 29.97 in 12.0 mi West 10.4 mph 17.3 mph N/A   Clear
5:56 PM 48.9 °F - 25.2 °F 40% 29.99 in 12.0 mi WSW 4.6 mph - N/A   Clear
6:56 PM 45.9 °F 42.9 °F 27.1 °F 48% 29.99 in 12.0 mi West 5.8 mph - N/A   Clear
7:56 PM 45.3 °F 41.6 °F 26.6 °F 48% 29.99 in 12.0 mi WSW 6.9 mph - N/A   Clear
8:56 PM 44.2 °F 39.7 °F 27.0 °F 51% 30.00 in 12.0 mi WSW 8.1 mph - N/A   Clear
9:56 PM 40.5 °F 35.8 °F 28.2 °F 62% 30.00 in 12.0 mi SSW 6.9 mph - N/A   Clear
10:56 PM 40.1 °F 36.1 °F 28.2 °F 63% 29.99 in 12.0 mi SSW 5.8 mph - N/A   Clear
11:56 PM 39.4 °F 33.8 °F 28.2 °F 64% 29.97 in 12.0 mi SSW 8.1 mph - N/A   Clear